Time,TemperatureF,DewpointF,PressureIn,WindDirection,WindDirectionDegrees,WindSpeedMPH,WindSpeedGustMPH,Humidity,HourlyPrecipIn,Conditions,Clouds,dailyrainin,SolarRadiationWatts/m^2,SoftwareType,DateUTC
2013-06-04 00:22:00,53.0,17.0,-100.00,NE,38,7.0,10.0,24,0.00,,,0.00,0.000000,,2013-06-04 07:22:00,
2013-06-04 00:32:00,53.0,17.0,-100.00,NE,38,7.0,10.0,24,0.00,,,0.00,0.000000,,2013-06-04 07:32:00,
2013-06-04 01:22:00,54.0,30.0,-100.00,NNE,32,5.0,7.0,40,-99.99,,,0.00,0.000000,,2013-06-04 08:22:00,
2013-06-04 02:00:00,52.0,28.0,-100.00,NE,34,7.0,8.0,40,-99.99,,,0.00,0.000000,,2013-06-04 09:00:00,
2013-06-04 02:22:00,52.0,28.0,-100.00,NE,34,7.0,8.0,40,-99.99,,,0.00,0.000000,,2013-06-04 09:22:00,
2013-06-04 02:33:00,52.0,28.0,-100.00,NE,34,7.0,8.0,40,-99.99,,,0.00,0.000000,,2013-06-04 09:33:00,
2013-06-04 02:43:00,52.0,28.0,-100.00,NE,34,7.0,8.0,40,-99.99,,,0.00,0.000000,,2013-06-04 09:43:00,
2013-06-04 02:53:00,52.0,28.0,-100.00,NE,34,7.0,8.0,40,-99.99,,,0.00,0.000000,,2013-06-04 09:53:00,
2013-06-04 03:23:00,55.0,34.0,-100.00,NNE,31,7.0,10.0,45,0.00,,,0.00,0.000000,,2013-06-04 10:23:00,
2013-06-04 03:33:00,55.0,34.0,-100.00,NNE,31,7.0,10.0,45,0.00,,,0.00,0.000000,,2013-06-04 10:33:00,
2013-06-04 04:00:00,54.0,42.0,-100.00,NE,36,8.0,12.0,63,-99.99,,,0.00,0.000000,,2013-06-04 11:00:00,
2013-06-04 04:22:00,54.0,42.0,-100.00,NE,36,8.0,12.0,63,-99.99,,,0.00,0.000000,,2013-06-04 11:22:00,
2013-06-04 04:32:00,54.0,42.0,-100.00,NE,36,8.0,12.0,63,-99.99,,,0.00,0.000000,,2013-06-04 11:32:00,
2013-06-04 04:42:00,54.0,42.0,-100.00,NE,36,8.0,12.0,63,-99.99,,,0.00,0.000000,,2013-06-04 11:42:00,
2013-06-04 04:52:00,54.0,42.0,-100.00,NE,36,8.0,12.0,63,-99.99,,,0.00,0.000000,,2013-06-04 11:52:00,
2013-06-04 05:00:00,52.0,44.0,-100.00,NE,39,8.0,10.0,75,0.00,,,-99.99,0.000000,,2013-06-04 12:00:00,
2013-06-04 05:22:00,52.0,44.0,-100.00,NE,39,8.0,10.0,75,0.00,,,-99.99,0.000000,,2013-06-04 12:22:00,
2013-06-04 05:32:00,52.0,44.0,-100.00,NE,39,8.0,10.0,75,0.00,,,-99.99,0.000000,,2013-06-04 12:32:00,
2013-06-04 05:42:00,52.0,44.0,-100.00,NE,39,8.0,10.0,75,0.00,,,-99.99,0.000000,,2013-06-04 12:42:00,
2013-06-04 05:52:00,52.0,44.0,-100.00,NE,39,8.0,10.0,75,0.00,,,-99.99,0.000000,,2013-06-04 12:52:00,
2013-06-04 06:00:00,56.0,40.0,-100.00,NE,39,8.0,11.0,55,0.00,,,0.00,22.000000,,2013-06-04 13:00:00,
2013-06-04 06:22:00,56.0,40.0,-100.00,NE,39,8.0,11.0,55,0.00,,,0.00,22.000000,,2013-06-04 13:22:00,
2013-06-04 06:32:00,56.0,40.0,-100.00,NE,39,8.0,11.0,55,0.00,,,0.00,22.000000,,2013-06-04 13:32:00,
2013-06-04 07:00:00,60.0,34.0,-100.00,ENE,68,8.0,12.0,38,0.00,,,0.00,154.000000,,2013-06-04 14:00:00,
2013-06-04 07:22:00,60.0,34.0,-100.00,ENE,68,8.0,12.0,38,0.00,,,0.00,154.000000,,2013-06-04 14:22:00,
2013-06-04 08:00:00,62.0,41.0,-100.00,ENE,74,9.0,14.0,46,0.00,,,-99.99,358.000000,,2013-06-04 15:00:00,
2013-06-04 08:22:00,62.0,41.0,-100.00,ENE,74,9.0,14.0,46,0.00,,,-99.99,358.000000,,2013-06-04 15:22:00,
2013-06-04 08:42:00,62.0,41.0,-100.00,ENE,74,9.0,14.0,46,0.00,,,-99.99,358.000000,,2013-06-04 15:42:00,
2013-06-04 08:53:00,62.0,41.0,-100.00,ENE,74,9.0,14.0,46,0.00,,,-99.99,358.000000,,2013-06-04 15:53:00,
2013-06-04 09:00:00,65.0,41.0,-100.00,ENE,71,9.0,15.0,41,0.00,,,0.00,564.000000,,2013-06-04 16:00:00,
2013-06-04 09:23:00,65.0,41.0,-100.00,ENE,71,9.0,15.0,41,0.00,,,0.00,564.000000,,2013-06-04 16:23:00,
2013-06-04 09:33:00,65.0,41.0,-100.00,ENE,71,9.0,15.0,41,0.00,,,0.00,564.000000,,2013-06-04 16:33:00,
2013-06-04 10:00:00,66.0,44.0,-100.00,ENE,74,8.0,14.0,45,0.00,,,0.00,767.000000,,2013-06-04 17:00:00,
2013-06-04 10:23:00,66.0,44.0,-100.00,ENE,74,8.0,14.0,45,0.00,,,0.00,767.000000,,2013-06-04 17:23:00,
2013-06-04 10:33:00,66.0,44.0,-100.00,ENE,74,8.0,14.0,45,0.00,,,0.00,767.000000,,2013-06-04 17:33:00,
2013-06-04 10:42:00,66.0,44.0,-100.00,ENE,74,8.0,14.0,45,0.00,,,0.00,767.000000,,2013-06-04 17:42:00,
2013-06-04 10:52:00,66.0,44.0,-100.00,ENE,74,8.0,14.0,45,0.00,,,0.00,767.000000,,2013-06-04 17:52:00,
2013-06-04 11:00:00,71.0,48.0,-100.00,ENE,76,6.0,13.0,44,0.00,,,0.00,932.000000,,2013-06-04 18:00:00,
2013-06-04 11:22:00,71.0,48.0,-100.00,ENE,76,6.0,13.0,44,0.00,,,0.00,932.000000,,2013-06-04 18:22:00,
2013-06-04 11:32:00,71.0,48.0,-100.00,ENE,76,6.0,13.0,44,0.00,,,0.00,932.000000,,2013-06-04 18:32:00,
2013-06-04 12:00:00,73.0,48.0,-100.00,East,92,4.0,13.0,41,-99.99,,,0.00,1061.000000,,2013-06-04 19:00:00,
2013-06-04 12:22:00,73.0,48.0,-100.00,East,92,4.0,13.0,41,-99.99,,,0.00,1061.000000,,2013-06-04 19:22:00,
2013-06-04 12:33:00,73.0,48.0,-100.00,East,92,4.0,13.0,41,-99.99,,,0.00,1061.000000,,2013-06-04 19:33:00,
2013-06-04 13:00:00,72.0,44.0,-100.00,East,86,5.0,13.0,37,-99.99,,,0.00,1100.000000,,2013-06-04 20:00:00,
2013-06-04 13:22:00,72.0,44.0,-100.00,East,86,5.0,13.0,37,-99.99,,,0.00,1100.000000,,2013-06-04 20:22:00,
2013-06-04 13:32:00,72.0,44.0,-100.00,East,86,5.0,13.0,37,-99.99,,,0.00,1100.000000,,2013-06-04 20:32:00,
2013-06-04 13:42:00,72.0,44.0,-100.00,East,86,5.0,13.0,37,-99.99,,,0.00,1100.000000,,2013-06-04 20:42:00,
2013-06-04 13:53:00,72.0,44.0,-100.00,East,86,5.0,13.0,37,-99.99,,,0.00,1100.000000,,2013-06-04 20:53:00,
2013-06-04 14:00:00,73.0,42.0,-100.00,ENE,74,2.0,11.0,33,-99.99,,,0.00,1097.000000,,2013-06-04 21:00:00,
2013-06-04 14:22:00,73.0,42.0,-100.00,ENE,74,2.0,11.0,33,-99.99,,,0.00,1097.000000,,2013-06-04 21:22:00,
2013-06-04 14:33:00,73.0,42.0,-100.00,ENE,74,2.0,11.0,33,-99.99,,,0.00,1097.000000,,2013-06-04 21:33:00,
2013-06-04 14:42:00,73.0,42.0,-100.00,ENE,74,2.0,11.0,33,-99.99,,,0.00,1097.000000,,2013-06-04 21:42:00,
2013-06-04 14:53:00,73.0,42.0,-100.00,ENE,74,2.0,11.0,33,-99.99,,,0.00,1097.000000,,2013-06-04 21:53:00,
2013-06-04 15:00:00,72.0,44.0,-100.00,SE,129,2.0,8.0,37,-99.99,,,0.00,1081.000000,,2013-06-04 22:00:00,
2013-06-04 15:22:00,72.0,44.0,-100.00,SE,129,2.0,8.0,37,-99.99,,,0.00,1081.000000,,2013-06-04 22:22:00,
2013-06-04 15:33:00,72.0,44.0,-100.00,SE,129,2.0,8.0,37,-99.99,,,0.00,1081.000000,,2013-06-04 22:33:00,
2013-06-04 15:42:00,72.0,44.0,-100.00,SE,129,2.0,8.0,37,-99.99,,,0.00,1081.000000,,2013-06-04 22:42:00,
2013-06-04 15:52:00,72.0,44.0,-100.00,SE,129,2.0,8.0,37,-99.99,,,0.00,1081.000000,,2013-06-04 22:52:00,
2013-06-04 16:00:00,69.0,44.0,-100.00,ESE,123,0.0,8.0,40,0.00,,,0.00,948.000000,,2013-06-04 23:00:00,
2013-06-04 16:22:00,69.0,44.0,-100.00,ESE,123,0.0,8.0,40,0.00,,,0.00,948.000000,,2013-06-04 23:22:00,
2013-06-04 16:32:00,69.0,44.0,-100.00,ESE,123,0.0,8.0,40,0.00,,,0.00,948.000000,,2013-06-04 23:32:00,
2013-06-04 16:42:00,69.0,44.0,-100.00,ESE,123,0.0,8.0,40,0.00,,,0.00,948.000000,,2013-06-04 23:42:00,
2013-06-04 16:52:00,69.0,44.0,-100.00,ESE,123,0.0,8.0,40,0.00,,,0.00,948.000000,,2013-06-04 23:52:00,
2013-06-04 17:00:00,69.0,48.0,-100.00,NE,56,1.0,9.0,48,0.00,,,0.00,832.000000,,2013-06-05 00:00:00,
2013-06-04 17:22:00,69.0,48.0,-100.00,NE,56,1.0,9.0,48,0.00,,,0.00,832.000000,,2013-06-05 00:22:00,
2013-06-04 17:33:00,69.0,48.0,-100.00,NE,56,1.0,9.0,48,0.00,,,0.00,832.000000,,2013-06-05 00:33:00,
2013-06-04 17:42:00,69.0,48.0,-100.00,NE,56,1.0,9.0,48,0.00,,,0.00,832.000000,,2013-06-05 00:42:00,
2013-06-04 17:52:00,69.0,48.0,-100.00,NE,56,1.0,9.0,48,0.00,,,0.00,832.000000,,2013-06-05 00:52:00,
2013-06-04 18:00:00,65.0,46.0,-100.00,WSW,251,2.0,8.0,51,0.00,,,0.00,617.000000,,2013-06-05 01:00:00,
2013-06-04 18:22:00,65.0,46.0,-100.00,WSW,251,2.0,8.0,51,0.00,,,0.00,617.000000,,2013-06-05 01:22:00,
2013-06-04 18:32:00,65.0,46.0,-100.00,WSW,251,2.0,8.0,51,0.00,,,0.00,617.000000,,2013-06-05 01:32:00,
2013-06-04 18:42:00,65.0,46.0,-100.00,WSW,251,2.0,8.0,51,0.00,,,0.00,617.000000,,2013-06-05 01:42:00,
2013-06-04 18:52:00,65.0,46.0,-100.00,WSW,251,2.0,8.0,51,0.00,,,0.00,617.000000,,2013-06-05 01:52:00,
2013-06-04 19:00:00,59.0,41.0,-100.00,WSW,250,5.0,11.0,52,0.00,,,0.00,400.000000,,2013-06-05 02:00:00,
2013-06-04 19:22:00,59.0,41.0,-100.00,WSW,250,5.0,11.0,52,0.00,,,0.00,400.000000,,2013-06-05 02:22:00,
2013-06-04 19:32:00,59.0,41.0,-100.00,WSW,250,5.0,11.0,52,0.00,,,0.00,400.000000,,2013-06-05 02:32:00,
2013-06-04 19:42:00,59.0,41.0,-100.00,WSW,250,5.0,11.0,52,0.00,,,0.00,400.000000,,2013-06-05 02:42:00,
2013-06-04 19:52:00,59.0,41.0,-100.00,WSW,250,5.0,11.0,52,0.00,,,0.00,400.000000,,2013-06-05 02:52:00,
2013-06-04 20:00:00,58.0,37.0,-100.00,WSW,258,3.0,10.0,45,0.00,,,0.00,32.000000,,2013-06-05 03:00:00,
2013-06-04 20:33:00,58.0,37.0,-100.00,WSW,258,3.0,10.0,45,0.00,,,0.00,32.000000,,2013-06-05 03:33:00,
2013-06-04 20:43:00,58.0,37.0,-100.00,WSW,258,3.0,10.0,45,0.00,,,0.00,32.000000,,2013-06-05 03:43:00,
2013-06-04 20:53:00,58.0,37.0,-100.00,WSW,258,3.0,10.0,45,0.00,,,0.00,32.000000,,2013-06-05 03:53:00,
2013-06-04 21:23:00,58.0,29.0,-100.00,ESE,102,4.0,8.0,33,0.00,,,0.00,18.000000,,2013-06-05 04:23:00,
2013-06-04 21:33:00,58.0,29.0,-100.00,ESE,102,4.0,8.0,33,0.00,,,0.00,18.000000,,2013-06-05 04:33:00,
2013-06-04 22:00:00,55.0,36.0,-100.00,WSW,250,4.0,9.0,49,0.00,,,0.00,1.000000,,2013-06-05 05:00:00,
2013-06-04 22:23:00,55.0,36.0,-100.00,WSW,250,4.0,9.0,49,0.00,,,0.00,1.000000,,2013-06-05 05:23:00,
2013-06-04 22:32:00,55.0,36.0,-100.00,WSW,250,4.0,9.0,49,0.00,,,0.00,1.000000,,2013-06-05 05:32:00,
2013-06-04 22:42:00,55.0,36.0,-100.00,WSW,250,4.0,9.0,49,0.00,,,0.00,1.000000,,2013-06-05 05:42:00,
2013-06-04 22:52:00,55.0,36.0,-100.00,WSW,250,4.0,9.0,49,0.00,,,0.00,1.000000,,2013-06-05 05:52:00,
2013-06-04 23:00:00,54.0,48.0,-100.00,West,271,3.0,11.0,80,0.00,,,0.00,0.000000,,2013-06-05 06:00:00,
2013-06-04 23:22:00,54.0,48.0,-100.00,West,271,3.0,11.0,80,0.00,,,0.00,0.000000,,2013-06-05 06:22:00,
2013-06-04 23:32:00,54.0,48.0,-100.00,West,271,3.0,11.0,80,0.00,,,0.00,0.000000,,2013-06-05 06:32:00,
2013-06-04 23:42:00,54.0,48.0,-100.00,West,271,3.0,11.0,80,0.00,,,0.00,0.000000,,2013-06-05 06:42:00,
2013-06-04 23:52:00,54.0,48.0,-100.00,West,271,3.0,11.0,80,0.00,,,0.00,0.000000,,2013-06-05 06:52:00,